Погода в Шарковщине

Погода в Шарковщине : погода сейчас, прогноз погоды и архив. Всё, что Вы хотите узнать о погоде в Шарковщине!

Хотите узнать прогноз погоды в Шарковщине? Тогда Вам сюда: Погода в Шарковщине

Поиск расширенной информации на нашем сайте:

Другие новости

Новости СМИ2

Главная страница сайта

Новости сайта

03.07.2017

Напоминаем, что на нашем специализированном сайте Метеоцентр.Азия вы можете получить высокодетализированные автоматические прогнозы погоды по пунктам России, СНГ и мира в авиационном формате (включающие направление и скорость ветра, видимость, явления погоды, количество и форму облачности, нижнюю и верхнюю границу облачности).


Погода в Шарковщине - сегодня

Время (UTC), дата Ветер
(°,м/с) 
Видим.   Явления Облачность Т
(°С)
Тd
(°С)
f(%) Тe
(°С)
Pmin
(гПа)
dP
(гПа)
Po
(мм)
O2
(г/м3)
Тmin Tmax R s Состояние
почвы
18 11.07.18 тихо ()   20000 м    9/4 600 м средняя 
[Cu med, cong|Ac trans]
+20.4 +16.4 78 +32  1016.2  0.1  751  278    +26.6       
21 11.07.18 070 (В) 18000 м    9/4 600 м средняя 
[Sc|Ac trans]
+19.3 +16.1 82 +32  1016.5  0.3  751  279           
00 12.07.18 060 (СВ) 16000 м    3/3 600 м средняя 
[Sc|Ac trans]
+17.3 -14.7 10 +18  1016.3  -0.3  751  286           
09 12.07.18 080 (В) 23000 м    9/6 600 м средняя, верхняя 
[Cu med, cong|Ac trans|Ci fib]
+24.3 +15.3 57 +33  1015.3  -0.6  750  274           
12 12.07.18 090 (В) 24000 м    10/6 600 м средняя, верхняя 
[Cu med, cong|Ac trans|Ci fib]
+25.1 +15.9 57 +35  1014  -1.2  749  273           
15 12.07.18 070 (В) 25000 м    8/5 600 м средняя, верхняя 
[Cu med, cong|Ac trans|Cc]
+26.6 +13.1 43 +32  1012.8  -1.2  748  272           
18 12.07.18 270 (З) 14000 м  в посл. час ливневой дождь  10/6 600 м средняя, верхняя 
[Cu med, cong|Ac trans|Ci fib]
+19.3 +17.5 89 +34  1013.4  0.3  749  278    +27.1  0.9     
21 12.07.18 020 (С) 18000 м    8/6 600 м средняя, верхняя 
[Cu med, cong|Ac trans|Ci fib]
+17.8 +16.8 94 +31  1013.5  749  279           
00 13.07.18 050 (СВ) 18000 м    8/5 600 м средняя 
[Cu med, cong|Ac trans]
+16.4 +15.4 94 +27  1012.2  -1.3  748  281           
12 13.07.18 040 (СВ) 20000 м  {гроза, ливн. осадки}  10/5 600 м средняя 
[Cu med, cong|As op]
+20 +16.9 82 +32  1010.9  -0.5  747  277         
15 13.07.18 050 (СВ) 18000 м    10/8 600 м средняя 
[Cu med, cong|As op]
+19.5 +17.4 88 +34  1010  -0.9  746  277         
21 13.07.18 050 (СВ) 12000 м    9/9 800 м 
[Sc]
+17.2 +16.4 95 +30  1009.5  0.2  746  279           
03 14.07.18 020 (С) 5000 м  в посл. час ливневой дождь  10/8 570 м средняя 
[Cu Sc|Ac As]
+16.5 +16.2 98 +29  1008.4  -0.3  745  279         
06 14.07.18 050 (СВ) 11000 м  {ливн. осадки}  9/9 540 м 
[Cu Sc]
+18.3 +17.1 93 +33  1007.9  -0.4  744  277  +16.2       
09 14.07.18 100 (В) 15000 м    10/8 570 м средняя 
[Cu Sc|Ac As]
+20.2 +17.4 84 +34  1008.6  0.8  745  276           
21 14.07.18 300 (СЗ) 8000 м  дымка  10/5 600 м средняя, верхняя 
[Sc diur, vesp|Ac lent|Ci fib]
+17.2 +16.7 97 +31  1008.5  0.6  745  279           
03 15.07.18 300 (СЗ) 7000 м  дымка{ливн. осадки}  9/4 600 м средняя 
[Cu Sc|Ac As]
+16.4 +15.9 97 +28  1008.5  745  280      0.3     
06 15.07.18 050 (СВ) 15000 м  {ливн. осадки}  9/9 600 м 
[Cu med, cong]
+20.4 +17.5 83 +34  1008.6  0.3  745  275  +16.3    0.3     
09 15.07.18 070 (В) 20000 м    8/8 600 м средняя 
[Cu med, cong|Ac trans]
+23.4 +18.5 74 +39  1008.9  0.5  745  272           
15 15.07.18 050 (СВ) 20000 м    9/6 600 м средняя, верхняя 
[Cu med, cong|Ac trans|Ci fib]
+25.5 +16.8 59 +38  1008  -0.5  745  271         
18 15.07.18 020 (С) 20000 м    10/3 600 м средняя, верхняя 
[Cu med, cong|As op|Ci fib]
+24 +18.1 70 +39  1008.8  0.7  745  272    +26.1     
21 15.07.18 020 (С) 18000 м    10/0 средняя, верхняя 
[Ac trans|Ci fib]
+21 +18.4 85 +36  1009.3  0.4  746  275           
00 16.07.18 050 (СВ) 15000 м    10/4 600 м средняя, верхняя 
[Sc|Ac trans|Ci fib]
+19 +17 88 +33  1010  0.6  746  277           
03 16.07.18 030 (СВ) 8000 м  дымка  10/4 600 м средняя, верхняя 
[Sc|Ac trans|Ci fib]
+17.7 +16.7 94 +31  1010.3  0.2  746  279           
09 16.07.18 070 (В) 20000 м    10/5 600 м средняя, верхняя 
[Cu med, cong|Ac trans|Cc]
+25 +19.2 70 +42  1009.3  -0.4  746  271           
Время (UTC), дата Ветер
(°,м/с) 
Видим.   Явления Облачность Т
(°С)
Тd
(°С)
f(%) Тe
(°С)
Pmin
(гПа)
dP
(гПа)
Po
(мм)
O2
(г/м3)
Тmin Tmax R s Состояние
почвы

Для получения пояснительной информации подведите курсор к названию столбца.

ПОГОДА в Шарковщине - архив

Всё, что Вы хотите узнать о погоде в Шарковщине - удобно и подробно!

Выберите нужную дату (начиная с 1 января 2015* года) и нажмите кнопку "Найти".
Будут отображены архивные сводки погоды по пункту Шарковщина, начиная с указанной даты.


Отображать данные в формате CSV (для использования в таблицах Excel)


Внимание! Наш архив погоды предназначен исключительно для личного некоммерческого использования в познавательных целях. Если Вам необходимы официальные справки о состоянии погоды (для производственных, юридических, коммерческих и т.п. целей), обращайтесь в органы Росгидромета.

*Примечание: данная дата относится к архиву по метеостанциям СССР (Россия, СНГ, Балтия).
Архив по метеостанциям Зарубежной Европы и Азии (кроме Китая) хранится 10 дней, по другим регионам земного шара (Китай, Африка, Америка, Австралия, Океания) - 1 день.

Шарковщина - район местоположения метеостанции


Название, широта, долгота, высота метеостанции:
Шарковщина 55.4°ш. 27.5°д. 131 м над ур. моря [Беларусь]

Дополнительная информация

В oтличие oт бoльшинства пoгoдных сайтoв мы публикуем пoдрoбную метеoинфoрмацию в детальнoм прoфессиoнальнoм фoрмате.

Характеристики температуры и влажнoсти вoздуха измеряются на высoте 2 м в тени вдали oт зданий и деревьев.
Скoрoсть ветра измеряется на высoте 10 м (на урoвне рoста челoвека скoрoсть ветра ниже в 1.5-2 раза). Если метеoстанция нахoдится в гoрoде или в лесу, тo скoрoсть ветра занижена на 2-4 м/с пo сравнению с oткрытым местoм. Скoрoсть ветра над акватoриями крупных рек и oзёр, а также на вершинах хoлмoв на 2-5 м/с выше, чем в oбычных услoвиях.
Атмoсфернoе давление в разных тoчках местнoсти мoжет значительнo oтличаться oт давления на метеoстанции, в зависимoсти oт услoвий рельефа (при пoдъёме на 10 м давление пoнижается примернo на 1 мм рт.ст.).